SCOUT X-4 DEB

Satellite information

Favourite Embed

Satellite Type and Status

DEBRISIN ORBIT

Key statistics

Satellite SCOUT X-4 DEB at a glance.

Uptime

22345

Days in orbit

Revolutions

≈ 13.8

Per day

Orbit

LEO

Low Earth Orbit

Inclination

80.0

Latest

Satellite identification and parameters

Extended collection of information and parameters for SCOUT X-4 DEB.

Object identification

Identified? True

Debris? True

Object name: SCOUT X-4 DEB

International designator: 1964-064D

Object number (NORAD): 977

Object ID (CCSDS): 977

Country: UNITED STATES OF AMERICA (US)

Current information (Y/N): Y

RCS size: SMALL

Orbital parameters

Period: 104.423 minutes

Inclination: 80.0446 deg

SMA: 7345.544 km

Apoapsis: 1059.629 km

Periapsis: 875.19 km

RAAN: 347.5525 deg

Eccentricy: 0.0125545

Argument of periapsis: 281.7391 deg

Mean anomaly: 76.9696 deg

Mean motion: 13.79008031 rev/day

Mean motion (dot): 0.00000511 rev/day2

B* drag term: 0.00046606482 1/REarth

Two-line elements (TLE)

Creation date: Dec. 12, 2025, 10:14 a.m.

Reference frame: TEME

Reference center: EARTH

Epoch: Dec. 12, 2025, 6:53 a.m. UTC

TLE line 0: 0 SCOUT X-4 DEB

TLE line 1: 1 00977U 64064D 25346.28727725 .00000511 00000-0 46606-3 0 9995

TLE line 2: 2 00977 80.0446 347.5525 0125545 281.7391 76.9696 13.79008031 63678

Live tracking on map

Real-time ground track for satellite SCOUT X-4 DEB.

In-orbit conjunctions

A list of the most updated potential collisions computed for object SCOUT X-4 DEB.

Target Orbit TCA Probability of collision Miss distance Type
THORAD AGENA D DEB SSO 2025-03-15 17:11:29 0.0005835918 36.0 (m) DEBRIS
FENGYUN 1C DEB SSO 2024-11-10 17:03:44 0.000198198 724.0 (m) DEBRIS

Associated space launch

The BE (Beacon Explorer) satellites provided Laser reflectors for geodetic measurements as well measured the electron density in the ionosphere.

SCOUT X-4 DEB was lifted into orbit during the mission ‘Scout X-4 | Beacon Explorer B’, on board a Scout X-4 space rocket.

The launch took place on Oct. 10, 1964, 3:01 a.m. from Space Launch Complex 5.

For more information about the launch, click the button.

Launch to space Scout X-4 | Beacon Explorer B
Scout X-4 | Beacon Explorer B

Agency: N/A

Status: Launch Successful

Launch date: Oct. 10, 1964, 3:01 a.m. UTC

Rocket: Scout X-4

Launch pad: Space Launch Complex 5

Location: Vandenberg SFB, CA, USA

...

Latest news about this satellite

There are no fresh news available about this satellite. Check back as we update our databases every day.


Newsletter sign-up

Weekly statistics, charts and insights to help you stay on top of the space industry.